Wind_Speed
20 19 19 20 20 20 20 21 20 19 19 19 18 17 17 16 15 15 16 16 17 18 17 16 16 16 16 17 17 18 18 18 18 19 19 19 18 18 19 20 20 20 20
20 19 20 20 21 20 20 20 20 20 20 20 19 18 18 18 17 17 17 17 18 18 18 18 18 18 17 18 18 18 19 19 19 19 20 20 20 20 20 20 20 20 20
20 21 21 21 21 21 21 20 19 19 20 20 20 19 19 19 19 18 18 18 19 19 19 19 19 19 18 18 19 19 19 19 19 20 20 21 21 21 22 22 22 22 22
21 21 21 21 20 19 19 20 20 20 20 21 21 21 20 20 20 19 19 19 20 20 20 20 20 20 20 20 20 20 20 20 20 21 21 22 22 22 23 23 23 23 23
21 21 21 21 20 19 19 19 19 20 21 20 21 21 21 21 21 20 20 20 20 20 20 21 21 21 21 21 21 21 21 21 22 22 22 23 23 22 22 23 23 24 24
20 20 21 21 20 19 19 20 20 20 20 21 21 21 21 21 21 21 21 21 21 21 22 22 22 23 22 23 23 23 22 23 23 23 23 23 23 23 22 23 24 24 24
20 20 21 21 20 20 20 20 20 20 20 21 21 22 22 21 21 22 22 22 22 22 23 23 23 24 24 24 24 24 24 24 25 24 24 24 24 24 24 24 24 25 24
21 21 21 21 21 20 20 21 20 20 20 20 20 21 22 23 23 23 23 23 23 23 24 25 24 24 24 24 25 25 25 25 26 26 25 25 25 25 25 25 25 25 25
22 21 21 21 21 21 21 20 20 20 20 20 20 21 22 22 22 23 23 24 24 24 24 25 25 25 25 25 25 26 25 25 26 26 26 26 26 26 26 27 26 26 26
22 22 22 22 22 22 21 21 20 20 20 20 21 21 21 21 21 22 22 23 24 24 25 25 25 25 25 25 25 25 25 26 26 26 26 26 26 27 27 28 28 28 28
22 22 21 20 21 21 21 21 20 20 20 21 21 21 21 21 21 21 22 22 22 23 24 25 25 25 26 25 25 26 26 26 27 27 27 27 27 27 28 28 28 28 28
21 20 20 20 20 20 20 20 20 20 21 21 21 21 21 21 21 21 22 22 22 23 24 25 25 25 25 26 27 27 27 27 27 28 28 27 27 27 28 29 29 28 28
21 21 20 20 20 20 20 21 21 21 22 22 22 21 21 21 22 22 22 22 23 23 24 25 25 25 26 27 28 28 28 28 27 28 28 28 28 28 28 28 29 30 29
21 21 21 21 21 21 20 21 20 20 20 21 21 21 21 21 22 22 22 23 24 24 24 25 25 25 26 26 26 25 26 27 28 28 28 28 29 29 29 28 28 29 30
21 22 22 21 21 21 20 20 19 20 20 19 19 20 20 20 21 22 22 23 24 24 25 25 25 25 26 26 26 26 26 27 27 28 28 29 29 29 29 30 29 29 30
21 21 21 21 20 20 19 19 19 20 20 20 20 20 20 20 21 22 23 23 24 24 24 24 25 25 26 26 26 26 26 27 27 27 28 29 29 29 29 29 29 29 29
20 21 20 20 20 20 20 20 20 20 21 21 21 21 21 21 21 22 22 23 23 24 24 24 24 24 25 25 25 26 26 26 27 28 28 28 29 28 28 28 28 28 29
20 20 20 20 20 20 20 20 21 21 21 21 21 21 21 21 21 21 21 22 22 23 23 23 24 24 24 25 26 26 26 26 26 27 27 26 26 27 27 28 28 29 29
21 21 21 20 19 19 20 20 20 21 21 21 21 21 21 21 21 21 21 21 21 22 23 23 24 25 25 25 24 24 25 25 25 25 25 25 26 26 26 26 27 28 29
22 22 21 21 20 20 20 21 21 22 21 21 21 21 20 21 21 21 21 21 21 21 22 22 22 23 23 23 24 24 24 24 25 25 25 26 27 27 27 27 27 27 27
22 22 22 22 21 21 21 21 21 21 21 21 21 20 20 20 20 21 21 21 21 21 21 21 22 22 22 22 23 23 24 24 25 25 26 26 26 26 27 27 27 27 27
22 22 22 22 22 22 21 21 21 22 22 22 21 21 20 20 20 20 20 20 21 21 21 21 21 22 22 22 23 23 24 24 24 24 25 25 25 25 26 26 26 27 27
22 22 22 22 22 22 22 22 22 22 22 22 22 21 20 20 20 20 20 21 21 21 21 21 21 21 21 22 22 23 23 23 23 24 23 23 24 24 25 25 25 26 27
22 22 22 22 22 23 23 23 24 24 24 23 22 21 20 20 20 21 21 21 21 21 21 21 21 21 21 21 21 22 22 22 23 23 23 24 24 25 25 26 26 26 26
22 22 22 22 22 22 23 23 23 23 23 22 21 21 20 20 21 21 22 21 21 21 21 20 20 20 20 21 21 21 22 22 22 22 23 24 24 25 25 26 26 26 27
22 22 22 21 21 21 21 21 21 22 21 21 21 20 20 21 21 21 21 21 20 20 20 20 20 20 20 20 21 21 21 21 22 22 22 23 24 24 25 25 26 26 26
Wind_Direction
286 281 281 281 278 275 269 267 265 267 267 267 269 269 270 271 272 270 266 262 260 259 256 255 254 254 255 258 260 259 257 259 260 259 259 260 261 265 266 266 266 264 263
285 283 282 282 279 273 272 269 265 265 265 266 268 268 269 270 272 271 268 264 262 260 256 254 255 257 259 258 261 262 261 259 260 260 260 261 262 265 266 267 266 265 265
285 285 285 285 281 275 272 268 266 265 265 266 266 266 266 267 269 270 268 264 262 261 259 257 257 258 262 261 262 263 264 264 264 262 262 263 265 267 268 268 267 266 266
287 286 287 287 284 278 272 266 264 264 265 264 264 264 264 265 267 268 267 266 263 262 260 260 259 258 261 264 265 264 265 266 266 265 265 265 266 267 269 270 269 268 268
286 286 287 288 285 280 276 271 268 265 263 264 264 264 264 265 266 266 266 266 263 261 260 261 262 261 260 264 265 266 267 268 268 267 267 267 267 269 270 270 270 270 270
287 285 286 287 283 280 277 273 270 267 265 264 264 264 264 266 266 266 266 266 264 264 263 263 263 263 263 263 264 265 266 268 268 269 268 267 267 267 268 270 272 271 272
285 284 285 285 282 277 275 272 269 267 265 265 265 265 266 267 268 267 266 266 264 264 264 265 264 264 265 265 266 266 266 266 268 268 266 267 266 266 267 269 271 271 272
282 282 284 285 283 280 275 272 268 267 265 267 268 268 267 267 268 266 266 268 267 265 264 263 263 265 265 266 268 268 268 267 266 265 266 265 265 267 268 268 269 270 271
282 281 281 284 283 279 276 271 268 267 267 268 270 271 269 268 267 266 265 265 267 267 266 265 265 265 265 266 268 268 268 268 266 264 265 266 266 267 267 267 267 268 270
281 279 280 280 279 279 278 275 272 270 268 268 271 272 270 267 266 266 265 265 267 268 269 268 267 266 265 265 266 266 267 267 267 266 264 265 266 267 267 267 267 268 269
282 282 280 280 277 276 276 275 273 272 270 269 270 271 269 265 263 263 265 266 266 268 269 269 267 266 265 266 268 268 267 267 268 267 266 266 266 267 268 269 269 268 268
280 280 279 279 277 276 275 274 273 272 271 270 269 269 270 266 262 263 265 266 267 268 269 269 268 268 269 268 269 269 267 268 269 268 267 268 268 270 271 270 267 267 268
277 277 277 277 278 278 277 276 274 271 271 270 268 269 269 269 266 263 264 266 267 268 269 271 271 271 272 272 272 270 268 268 269 268 267 269 270 271 270 269 267 266 266
276 277 278 277 277 277 277 276 276 273 272 271 269 270 269 270 267 266 266 267 268 270 271 270 270 272 274 273 271 270 270 269 269 269 268 269 270 269 268 269 268 267 266
276 277 277 276 276 275 274 273 273 274 273 273 272 271 270 271 270 270 270 272 273 274 274 274 273 274 275 274 273 273 272 272 270 268 268 269 270 269 268 268 268 268 268
275 276 276 275 275 273 272 272 271 272 272 272 273 274 274 273 271 270 272 274 275 276 275 274 275 275 275 275 275 274 274 274 273 271 270 269 269 269 269 270 269 269 268
275 276 276 275 274 272 271 272 271 271 271 271 271 273 275 274 274 274 273 275 275 275 274 274 275 275 276 276 275 276 276 276 274 274 272 271 270 268 269 269 269 269 268
277 277 276 275 273 273 272 271 271 272 272 272 272 274 274 274 275 275 275 275 275 276 276 277 276 277 277 276 276 276 276 275 275 275 274 272 270 269 269 268 268 268 269
277 278 277 276 274 274 275 274 274 274 274 275 275 275 276 276 277 278 278 277 277 278 278 279 278 277 277 276 276 275 275 275 275 274 273 272 270 269 269 270 269 268 268
275 276 276 274 275 275 275 275 275 275 274 274 275 275 277 278 279 280 281 282 281 279 279 278 278 277 275 276 277 277 276 276 276 275 273 272 272 271 271 270 270 269 269
275 276 276 274 272 273 275 275 275 275 274 273 272 275 277 279 279 280 280 280 281 281 280 278 277 277 276 276 277 277 278 278 278 277 276 275 274 272 271 271 270 271 271
273 272 274 275 273 272 274 275 276 274 274 275 274 274 276 277 278 280 279 278 279 281 283 283 282 281 279 278 277 277 279 279 279 279 277 275 274 273 272 272 272 271 271
275 274 273 274 273 271 270 271 273 274 275 275 275 274 275 276 277 277 277 277 278 280 281 283 284 283 283 282 280 279 279 279 279 278 276 274 273 273 274 274 273 273 272
279 277 276 275 275 273 270 269 271 273 274 274 275 274 275 275 275 275 277 278 278 279 281 283 284 284 284 284 284 283 281 281 280 279 278 276 275 274 274 275 274 274 273
280 280 280 279 278 277 275 272 271 272 272 272 272 273 274 276 276 278 280 280 279 279 281 284 286 285 284 284 285 286 286 285 284 283 281 278 276 276 275 274 274 273 273
280 279 278 277 277 277 276 273 272 272 271 270 271 272 272 274 276 278 280 279 279 280 282 283 285 286 284 284 285 285 285 285 286 285 284 281 279 277 276 275 275 274 274
Height
5830 5828 5827 5826 5825 5824 5824 5824 5824 5824 5825 5825 5825 5826 5826 5826 5826 5826 5826 5827 5827 5828 5829 5830 5831 5832 5832 5833 5834 5834 5835 5836 5836 5837 5837 5837 5838 5838 5838 5838 5838 5839 5838
5824 5823 5821 5820 5819 5818 5818 5818 5818 5819 5819 5820 5820 5821 5821 5821 5821 5822 5822 5822 5823 5824 5824 5825 5826 5827 5828 5829 5829 5830 5830 5830 5831 5832 5832 5832 5833 5833 5833 5833 5833 5833 5833
5819 5817 5816 5814 5813 5812 5812 5812 5812 5813 5813 5814 5815 5815 5816 5816 5816 5817 5817 5818 5818 5819 5819 5820 5821 5822 5823 5824 5824 5825 5825 5825 5826 5826 5827 5827 5827 5827 5828 5828 5827 5827 5828
5813 5812 5810 5809 5807 5806 5805 5805 5806 5807 5807 5808 5809 5810 5810 5811 5811 5811 5812 5812 5813 5814 5814 5815 5816 5817 5818 5819 5819 5819 5819 5820 5820 5821 5821 5821 5821 5821 5822 5822 5822 5822 5822
5808 5806 5805 5803 5802 5800 5800 5800 5800 5801 5802 5802 5803 5804 5804 5805 5805 5806 5806 5807 5807 5808 5809 5810 5810 5811 5812 5813 5814 5814 5814 5814 5814 5815 5815 5815 5815 5815 5815 5816 5815 5815 5815
5802 5801 5799 5798 5796 5795 5794 5794 5795 5795 5795 5796 5797 5798 5798 5799 5799 5800 5801 5801 5801 5802 5803 5803 5804 5805 5806 5807 5808 5808 5808 5808 5808 5808 5809 5809 5809 5809 5809 5809 5809 5809 5809
5797 5795 5794 5793 5791 5790 5789 5789 5789 5789 5789 5790 5791 5791 5792 5793 5793 5794 5794 5795 5795 5796 5796 5797 5798 5798 5799 5800 5801 5801 5801 5801 5802 5802 5802 5803 5803 5803 5803 5803 5802 5802 5802
5791 5790 5789 5787 5786 5785 5784 5784 5783 5783 5783 5784 5784 5784 5785 5786 5786 5787 5787 5788 5788 5789 5790 5790 5791 5791 5792 5793 5793 5793 5794 5794 5794 5795 5795 5795 5795 5795 5796 5796 5795 5795 5794
5786 5784 5783 5782 5781 5779 5778 5778 5777 5777 5778 5778 5778 5778 5778 5779 5779 5780 5780 5781 5781 5782 5782 5783 5783 5784 5785 5785 5786 5786 5786 5786 5786 5787 5787 5788 5788 5788 5788 5788 5787 5787 5787
5780 5778 5777 5776 5775 5774 5773 5772 5772 5771 5771 5772 5772 5771 5771 5772 5772 5773 5773 5773 5774 5775 5775 5775 5776 5777 5777 5777 5778 5778 5779 5779 5779 5779 5779 5779 5780 5779 5779 5779 5779 5779 5779
5773 5772 5771 5770 5769 5768 5767 5767 5766 5765 5765 5765 5765 5765 5765 5765 5766 5766 5767 5767 5767 5768 5768 5768 5768 5769 5769 5769 5770 5770 5770 5770 5770 5771 5771 5771 5771 5771 5771 5771 5771 5770 5770
5768 5766 5765 5764 5763 5763 5762 5761 5760 5760 5759 5759 5759 5758 5758 5758 5759 5759 5760 5761 5761 5761 5761 5761 5761 5761 5761 5761 5761 5762 5762 5762 5762 5762 5762 5763 5763 5763 5763 5762 5762 5762 5762
5762 5761 5759 5759 5758 5757 5756 5755 5754 5754 5753 5753 5752 5752 5752 5751 5752 5752 5753 5754 5754 5754 5754 5754 5754 5754 5753 5753 5753 5753 5753 5753 5753 5753 5754 5754 5754 5754 5753 5753 5753 5753 5753
5756 5755 5754 5753 5752 5751 5750 5749 5748 5747 5747 5746 5746 5745 5745 5745 5745 5745 5746 5746 5746 5746 5746 5746 5746 5745 5745 5745 5745 5744 5744 5744 5744 5745 5745 5745 5744 5744 5744 5744 5744 5744 5744
5749 5748 5747 5746 5745 5744 5744 5743 5742 5741 5741 5741 5740 5740 5739 5739 5739 5739 5739 5739 5739 5739 5738 5738 5738 5738 5737 5737 5737 5736 5736 5735 5735 5735 5735 5735 5735 5735 5735 5735 5735 5735 5735
5743 5742 5741 5740 5739 5738 5737 5737 5736 5736 5735 5734 5734 5733 5733 5733 5733 5732 5732 5732 5731 5731 5731 5730 5730 5729 5729 5729 5728 5727 5727 5727 5726 5726 5726 5726 5726 5726 5726 5725 5725 5726 5726
5737 5735 5734 5734 5733 5732 5731 5731 5730 5729 5729 5728 5728 5727 5727 5727 5726 5726 5726 5725 5724 5724 5723 5723 5722 5721 5721 5720 5720 5719 5719 5718 5718 5717 5717 5716 5716 5716 5716 5716 5716 5716 5716
5730 5729 5728 5727 5727 5726 5725 5724 5724 5723 5723 5722 5721 5721 5720 5720 5720 5719 5719 5718 5717 5717 5716 5715 5714 5714 5713 5713 5712 5711 5711 5710 5709 5708 5708 5707 5707 5707 5707 5707 5707 5707 5707
5724 5723 5722 5721 5720 5720 5719 5718 5718 5717 5716 5716 5715 5715 5714 5714 5713 5712 5711 5711 5710 5710 5709 5708 5707 5706 5705 5705 5704 5703 5703 5702 5701 5700 5700 5699 5699 5698 5698 5698 5698 5698 5697
5717 5716 5715 5715 5714 5714 5713 5712 5712 5711 5711 5710 5709 5709 5708 5707 5707 5706 5705 5704 5703 5702 5702 5701 5700 5699 5698 5697 5696 5695 5694 5694 5693 5692 5691 5691 5690 5689 5689 5689 5689 5688 5688
5710 5709 5709 5708 5708 5707 5707 5706 5705 5705 5704 5704 5703 5703 5702 5701 5700 5699 5698 5698 5696 5695 5695 5694 5693 5692 5690 5689 5688 5687 5686 5685 5684 5683 5682 5682 5681 5680 5680 5680 5680 5680 5679
5702 5702 5701 5701 5701 5700 5700 5700 5699 5699 5698 5697 5697 5696 5695 5695 5694 5693 5692 5691 5690 5689 5688 5687 5686 5685 5683 5682 5681 5680 5678 5677 5676 5675 5674 5673 5672 5672 5671 5671 5671 5670 5670
5695 5694 5694 5693 5693 5693 5693 5693 5692 5692 5691 5690 5690 5689 5689 5688 5687 5686 5685 5685 5684 5683 5682 5680 5679 5678 5676 5675 5673 5672 5670 5669 5668 5667 5666 5665 5664 5664 5663 5663 5662 5662 5661
5687 5687 5686 5686 5686 5685 5685 5685 5684 5684 5684 5683 5682 5682 5681 5681 5680 5679 5679 5678 5677 5676 5675 5674 5672 5671 5669 5667 5666 5664 5663 5661 5660 5659 5657 5657 5656 5655 5655 5654 5653 5653 5652
5680 5680 5679 5678 5678 5678 5677 5677 5676 5676 5676 5675 5675 5675 5674 5674 5673 5672 5671 5671 5670 5669 5668 5667 5665 5664 5662 5661 5659 5657 5656 5654 5652 5651 5650 5648 5648 5647 5646 5645 5645 5644 5643
5672 5672 5672 5671 5671 5671 5670 5669 5669 5669 5668 5668 5668 5667 5667 5666 5666 5665 5664 5663 5662 5662 5661 5660 5658 5657 5655 5654 5652 5650 5649 5647 5645 5644 5642 5641 5640 5639 5638 5637 5636 5635 5634